Waarnemingen

Advertentie
Mijn weer
Istres, Frankrijk (7647): temperatuur & dauwpunt: 27.11.2020 23:00:00 - 03.12.2020 23:00:00 (CET)Istres, Frankrijk (7647): temperatuur 5cm: 27.11.2020 23:00:00 - 03.12.2020 23:00:00 (CET)Istres, Frankrijk (7647): windsnelheid & windstoten: 27.11.2020 23:00:00 - 03.12.2020 23:00:00 (CET)Istres, Frankrijk (7647): windrichting: 27.11.2020 23:00:00 - 03.12.2020 23:00:00 (CET)Istres, Frankrijk (7647): luchtdruk: 27.11.2020 23:00:00 - 03.12.2020 23:00:00 (CET)Istres, Frankrijk (7647): zicht: 27.11.2020 23:00:00 - 03.12.2020 23:00:00 (CET)Istres, Frankrijk (7647): neerslag: 27.11.2020 23:00:00 - 03.12.2020 23:00:00 (CET)
Datum & Tijd tt [°C] td [°C] tt 5cm [°C] ff [km/u] ff [kn] fx [km/u] fx [kn] dd ppp [hPa] vv [km] rr [mm]
03.12.2020 23:00:00 8,9 3,5 8,0 24 13 35 19 O 1000,1 38 0,0
03.12.2020 22:00:00 8,2 2,4 7,8 20 11 34 19 O 1001,4 36 0,0
03.12.2020 21:00:00 8,0 2,4 7,2 19 10 30 16 O 1002,1 31 0,0
03.12.2020 20:00:00 8,0 3,8 7,3 14 8 20 11 OZO 1002,8 38 0,0
03.12.2020 19:00:00 8,0 1,4 5,5 12 7 18 10 ZO 1003,6 60 0,0
03.12.2020 18:00:00 7,2 1,5 4,4 8 4 16 9 ZO 1004,0 60 0,0
03.12.2020 17:00:00 7,9 1,1 5,1 8 4 14 7 ZZO 1004,5 60 0,0
03.12.2020 16:00:00 10,4 1,2 10,6 8 4 23 12 WNW 1005,5 60 0,0
03.12.2020 15:00:00 11,3 1,2 14,0 16 9 29 16 NW 1006,0 45 0,0
03.12.2020 14:00:00 11,1 1,1 11,3 20 11 35 19 NW 1006,6 44 0,0
03.12.2020 13:00:00 10,6 1,1 12,3 24 13 42 23 WNW 1007,5 48 0,0
03.12.2020 12:00:00 10,7 0,7 12,6 27 14 41 22 NNW 1008,2 41 0,0
03.12.2020 11:00:00 9,2 1,1 9,4 27 14 36 19 NW 1009,5 50 0,0
03.12.2020 10:00:00 7,1 0,5 7,2 20 11 31 17 WNW 1009,4 47 0,0
03.12.2020 09:00:00 5,2 0,8 3,4 21 12 36 19 NW 1009,5 42 0,0
03.12.2020 08:00:00 4,1 -0,1 2,7 27 15 35 19 NNW 1009,7 60 0,0
03.12.2020 07:00:00 4,1 0,2 2,1 20 11 29 16 NW 1010,0 59 0,0
03.12.2020 06:00:00 4,6 0,0 3,4 16 9 53 28 NW 1010,0 60 0,0
03.12.2020 05:00:00 5,5 0,5 4,6 36 19 62 33 NNW 1009,9 57 0,0
03.12.2020 04:00:00 5,3 1,0 4,6 38 21 74 40 NNW 1010,5 44 0,0
03.12.2020 03:00:00 5,8 0,7 4,7 49 26 67 36 NNW 1010,6 58 0,0
03.12.2020 02:00:00 5,8 0,1 5,1 34 19 71 38 NNW 1010,8 60 0,0
03.12.2020 01:00:00 6,0 0,5 5,0 41 22 60 32 NNW 1010,7 60 0,0
03.12.2020 00:00:00 6,1 0,6 5,3 38 21 67 36 NNW 1011,0 60 0,0
02.12.2020 23:00:00 6,2 0,5 5,0 42 23 63 34 NNW 1010,9 60 0,0
02.12.2020 22:00:00 6,0 0,3 5,3 37 20 58 32 NNW 1011,0 60 0,0
02.12.2020 21:00:00 6,2 0,3 5,6 40 21 63 34 NNW 1011,1 58 0,0
02.12.2020 20:00:00 6,3 0,4 5,6 37 20 63 34 NNW 1011,0 59 0,0
02.12.2020 19:00:00 6,5 0,4 5,7 42 23 65 35 NNW 1010,5 60 0,0
02.12.2020 18:00:00 6,4 0,3 5,8 40 22 66 36 NNW 1010,2 60 0,0
02.12.2020 17:00:00 7,0 0,0 6,5 40 22 66 36 NNW 1009,7 58 0,0
02.12.2020 16:00:00 8,2 0,2 8,9 44 24 67 36 N 1009,2 28 0,0
02.12.2020 15:00:00 8,7 0,4 10,5 42 23 63 34 N 1008,9 41 0,0
02.12.2020 14:00:00 8,2 0,4 8,8 36 19 63 34 N 1008,6 52 0,0
02.12.2020 13:00:00 9,4 0,8 11,5 41 22 63 34 N 1008,6 20 0,0
02.12.2020 12:00:00 8,8 0,5 10,9 44 24 71 38 N 1009,1 36 0,0
02.12.2020 11:00:00 8,3 0,7 9,5 40 21 62 33 N 1009,8 45 0,0
02.12.2020 10:00:00 7,3 0,9 7,9 35 19 54 29 NNW 1009,7 45 0,0
02.12.2020 09:00:00 6,7 0,6 5,0 35 19 49 26 NNW 1009,2 49 0,0
02.12.2020 08:00:00 5,8 0,5 4,9 29 15 52 28 NNW 1009,5 60 0,0
02.12.2020 07:00:00 5,8 0,7 5,1 26 14 53 28 NNW 1009,5 60 0,0
02.12.2020 06:00:00 6,5 0,8 5,2 32 17 52 28 NNW 1009,2 60 0,0
02.12.2020 05:00:00 5,8 1,5 4,9 32 17 46 25 NNW 1009,4 60 0,0
02.12.2020 04:00:00 6,2 1,5 5,2 31 17 54 29 NNW 1009,7 60 0,0
02.12.2020 03:00:00 6,0 1,7 5,3 35 19 62 34 NNW 1010,2 60 0,0
02.12.2020 02:00:00 6,1 1,6 4,9 43 23 65 35 NNW 1010,5 60 0,0
02.12.2020 01:00:00 5,5 2,0 4,7 35 19 58 31 NNW 1011,1 60 0,0
02.12.2020 00:00:00 5,3 2,1 4,5 35 19 61 33 NW 1011,5 57 0,0
01.12.2020 23:00:00 5,4 2,0 4,6 28 15 47 25 NNW 1012,2 60 0,0
01.12.2020 22:00:00 5,6 2,1 4,9 31 17 53 28 NW 1012,6 60 0,0
01.12.2020 21:00:00 6,0 1,7 5,0 26 14 40 22 NNW 1013,5 60 0,0
01.12.2020 20:00:00 6,3 1,2 5,4 25 14 46 25 NW 1013,9 58 0,0
01.12.2020 19:00:00 7,2 1,1 6,6 35 19 56 30 NNW 1014,2 50 0,0
01.12.2020 18:00:00 8,2 0,4 7,5 41 22 59 32 NNW 1014,1 60 0,0
01.12.2020 17:00:00 8,7 0,2 7,9 31 17 60 32 N 1014,4 60 0,0
01.12.2020 16:00:00 9,2 2,3 8,6 27 14 61 33 NNW 1014,7 50 0,0
01.12.2020 15:00:00 10,2 3,0 10,1 27 15 44 24 NNW 1014,7 37 0,0
01.12.2020 14:00:00 9,9 3,2 10,4 25 14 38 20 NNW 1015,2 32 0,0
01.12.2020 13:00:00 9,5 1,1 9,9 18 10 24 13 NW 1016,0 30 0,0
01.12.2020 12:00:00 9,0 0,4 8,9 21 12 27 14 W 1017,1 30 0,0
01.12.2020 11:00:00 7,3 0,3 6,9 19 10 33 18 WNW 1018,1 19 0,0
01.12.2020 10:00:00 6,2 0,1 5,3 21 11 30 16 WNW 1018,4 28 0,0
01.12.2020 09:00:00 5,0 -0,2 4,7 19 10 28 15 WNW 1018,8 20 0,0
01.12.2020 08:00:00 4,9 -1,1 2,3 22 12 30 16 WNW 1019,3 20 0,0
01.12.2020 07:00:00 3,2 -1,4 1,6 5 3 16 9 NW 1019,4 20 0,0
01.12.2020 06:00:00 2,5 -1,5 1,2 10 6 18 10 WNW 1019,4 18 0,0
01.12.2020 05:00:00 3,8 -2,0 0,5 13 7 29 16 NNW 1019,7 16 0,0
01.12.2020 04:00:00 1,6 -1,3 -0,8 18 10 23 12 NW 1020,4 15 0,0
01.12.2020 03:00:00 1,3 -2,1 -0,4 9 5 23 13 NW 1021,0 15 0,0
01.12.2020 02:00:00 1,5 -2,3 0,1 16 9 28 15 NW 1021,4 16 0,0
01.12.2020 01:00:00 2,5 -1,5 -0,9 10 6 26 14 N 1021,7 15 0,0
01.12.2020 00:00:00 2,4 -1,6 1,2 16 9 29 15 NW 1022,0 14 0,0
30.11.2020 23:00:00 3,3 -1,1 2,4 17 9 35 19 NNW 1022,4 14 0,0
30.11.2020 22:00:00 3,6 -1,0 2,8 21 12 36 19 N 1022,4 14 0,0
30.11.2020 21:00:00 3,6 -1,0 2,2 19 10 32 17 NNW 1022,5 14 0,0
30.11.2020 20:00:00 3,9 -1,1 3,2 17 9 41 22 N 1022,5 17 0,0
30.11.2020 19:00:00 4,6 -0,2 3,8 21 12 31 17 N 1022,4 9 0,0
30.11.2020 18:00:00 5,9 0,2 5,2 22 12 30 16 N 1022,2 17 0,0
30.11.2020 17:00:00 7,6 1,6 6,7 18 10 29 15 NNW 1022,0 18 0,0
30.11.2020 16:00:00 9,9 2,7 10,4 23 12 30 16 NNW 1021,7 19 0,0
30.11.2020 15:00:00 11,3 3,6 14,0 22 12 28 15 NNW 1021,6 19 0,0
30.11.2020 14:00:00 11,7 3,9 15,4 18 10 24 13 NNW 1021,8 17 0,0
30.11.2020 13:00:00 11,0 3,5 14,0 19 10 24 13 N 1022,2 16 0,0
30.11.2020 12:00:00 9,6 3,1 12,8 16 8 26 14 N 1022,9 15 0,0
30.11.2020 11:00:00 8,2 3,0 9,7 14 8 23 13 N 1023,1 13 0,0
30.11.2020 10:00:00 5,8 1,9 6,3 14 8 26 14 NNO 1022,9 13 0,0
30.11.2020 09:00:00 3,5 1,4 1,8 14 8 22 12 NNO 1022,3 11 0,0
30.11.2020 08:00:00 2,4 0,6 1,0 16 9 22 12 NNO 1021,5 10 0,0
30.11.2020 07:00:00 1,7 0,4 0,5 14 7 18 10 NNO 1020,9 11 0,0
30.11.2020 06:00:00 1,9 0,4 1,0 11 6 22 12 NNO 1020,4 10 0,0
30.11.2020 05:00:00 3,0 1,0 1,8 14 7 24 13 N 1020,1 9 0,0
30.11.2020 04:00:00 3,2 1,1 2,4 13 7 21 11 N 1019,9 8 0,0
30.11.2020 03:00:00 3,6 1,1 2,7 13 7 21 12 N 1019,8 7 0,0
30.11.2020 02:00:00 3,6 1,3 2,7 13 7 22 12 N 1019,6 8 0,0
30.11.2020 01:00:00 3,9 1,1 3,3 16 9 26 14 N 1019,3 9 0,0
30.11.2020 00:00:00 4,3 1,2 3,6 16 9 31 17 N 1019,3 9 0,0
29.11.2020 23:00:00 4,5 1,2 4,1 23 13 34 19 N 1018,7 10 0,0
29.11.2020 22:00:00 4,8 1,5 4,2 25 13 37 20 NNW 1018,2 9 0,0
29.11.2020 21:00:00 5,3 1,6 4,9 21 12 35 19 N 1017,8 10 0,0
29.11.2020 20:00:00 6,2 2,1 5,6 24 13 31 17 N 1017,3 11 0,0
29.11.2020 19:00:00 7,0 2,7 5,5 8 4 23 12 NW 1016,8 13 0,0
29.11.2020 18:00:00 7,6 3,6 6,0 14 7 26 14 NW 1016,2 16 0,0
29.11.2020 17:00:00 10,8 3,6 9,9 14 8 24 13 N 1015,7 14 0,0
29.11.2020 16:00:00 13,1 4,5 13,5 16 9 21 12 N 1015,3 18 0,0
29.11.2020 15:00:00 14,1 5,2 17,6 14 8 19 11 N 1015,2 15 0,0
29.11.2020 14:00:00 14,0 5,4 18,0 13 7 20 11 NNW 1015,1 20 0,0
29.11.2020 13:00:00 13,4 5,3 17,2 16 9 22 12 NNW 1015,3 19 0,0
29.11.2020 12:00:00 12,3 5,2 15,2 14 8 25 13 N 1015,4 19 0,0
29.11.2020 11:00:00 10,9 4,8 12,8 16 9 30 16 NNO 1015,3 18 0,0
29.11.2020 10:00:00 9,2 5,0 10,1 19 11 28 15 NNO 1014,5 14 0,0
29.11.2020 09:00:00 6,9 3,9 4,7 13 7 19 11 N 1014,1 16 0,0
29.11.2020 08:00:00 5,5 2,8 4,0 10 6 19 10 N 1013,5 12 0,0
29.11.2020 07:00:00 5,5 3,0 4,3 9 5 24 13 NNO 1013,2 16 0,0
29.11.2020 06:00:00 5,0 2,9 4,2 14 8 20 11 NNO 1012,8 15 0,0
29.11.2020 05:00:00 6,1 3,4 4,8 14 7 21 12 NNO 1012,5 16 0,0
29.11.2020 04:00:00 6,4 3,5 5,4 9 5 24 13 NNO 1012,3 18 0,0
29.11.2020 03:00:00 7,2 3,6 5,1 10 5 19 10 N 1012,0 19 0,0
29.11.2020 02:00:00 7,7 4,1 6,7 12 6 21 11 N 1011,8 19 0,0
29.11.2020 01:00:00 8,4 4,4 6,1 13 7 17 9 N 1011,9 17 0,0
29.11.2020 00:00:00 8,4 4,4 6,8 7 4 25 13 NW 1011,9 16 0,0
28.11.2020 23:00:00 8,9 4,9 8,1 17 9 24 13 N 1011,0 12 0,0
28.11.2020 22:00:00 9,3 5,7 8,4 14 7 22 12 NNO 1011,1 27 0,0
28.11.2020 21:00:00 9,8 6,1 9,2 14 8 24 13 NNO 1010,9 18 0,0
28.11.2020 20:00:00 10,2 6,5 9,8 15 8 23 12 NNO 1010,4 6 0,0
28.11.2020 19:00:00 10,8 7,1 10,0 15 8 22 12 NNO 1010,1 8 0,0
28.11.2020 18:00:00 11,0 8,0 10,0 10 5 23 12 N 1009,8 3,4 0,6
28.11.2020 17:00:00 11,4 8,6 10,5 12 7 22 12 NNO 1009,9 13 0,8
28.11.2020 16:00:00 12,7 8,2 11,9 13 7 19 11 NNO 1009,9 16 0,2
28.11.2020 15:00:00 15,3 9,0 15,3 12 6 35 19 NO 1009,6 33 0,0
28.11.2020 14:00:00 16,5 9,4 16,5 24 13 42 23 O 1009,4 60 0,0
28.11.2020 13:00:00 16,5 9,2 16,6 28 15 53 29 O 1009,7 49 0,0
28.11.2020 12:00:00 16,6 9,3 17,0 22 12 50 27 O 1010,4 44 0,0
28.11.2020 11:00:00 16,3 9,2 15,7 34 18 54 29 O 1011,0 54 0,0
28.11.2020 10:00:00 15,8 9,0 15,2 27 15 47 25 O 1011,0 57 0,0
28.11.2020 09:00:00 15,7 8,4 14,3 23 13 40 22 O 1010,8 60 0,0
28.11.2020 08:00:00 15,0 8,5 14,1 21 11 37 20 O 1010,3 60 0,0
28.11.2020 07:00:00 15,0 8,9 14,1 23 12 42 23 O 1010,0 60 0,0
28.11.2020 06:00:00 15,0 8,7 14,3 30 16 48 26 O 1010,4 60 0,0
28.11.2020 05:00:00 15,0 9,1 13,6 21 11 37 20 O 1011,0 60 0,0
28.11.2020 04:00:00 14,9 9,0 14,1 29 15 45 24 O 1011,5 60 0,0
28.11.2020 03:00:00 14,8 8,9 13,9 28 15 42 23 O 1012,1 60 0,0
28.11.2020 02:00:00 15,1 9,0 14,2 30 16 50 27 O 1012,3 58 0,0
28.11.2020 01:00:00 15,2 8,9 14,6 26 14 46 25 O 1013,0 56 0,0
28.11.2020 00:00:00 15,2 9,3 13,6 24 13 43 23 O 1013,6 53 0,0
27.11.2020 23:00:00 14,2 9,6 13,2 21 11 34 19 O 1014,1 44 0,0

tt = temperatuur
td = dauwpunt
tt 5cm = temperatuur 5cm
ff = windsnelheid
fx = windstoten
dd = windrichting
ppp = luchtdruk
vv = zicht
rr = neerslag

Weerstations in de omgeving